Preview of NWS' New Version of Forecast
This preview is not operational and should not be used for support decisions.

Regional Weather Roundup (RWR)

Issued by National Weather Service (NWS)

                            
000
ASUS44 KFWD 220415
RWRTX 
NORTH TEXAS HOURLY WEATHER ROUNDUP
NATIONAL WEATHER SERVICE FORT WORTH TX
1000 PM CST MON JAN 21 2019

NOTE: "FAIR" INDICATES FEW OR NO CLOUDS BELOW 12,000 FEET WITH NO
SIGNIFICANT WEATHER AND/OR OBSTRUCTIONS TO VISIBILITY.

TXZ118-119-220500-
DALLAS/FORT WORTH METROPLEX
  
CITY           SKY/WX    TMP DP  RH WIND       PRES   REMARKS
DFW AIRPORT    FAIR      52  44  74 S12       29.88F                  
DALLAS LOVE    FAIR      53  44  71 SE22      29.90F                  
FTW MEACHAM    FAIR      54  46  74 S23G35    29.88S                  
DAL-EXECUTIVE    N/A     51  43  74 S17       29.89S                  
FTW-ALLIANCE   MOCLDY    54  44  69 S23       29.86S                  
FTW-NAS-JRB    FAIR      56  45  66 S12G22    29.88S                  
FTW-SPINKS     FAIR      55  46  72 S20G30    29.89F                  
ARLINGTON      FAIR      55  47  74 SE20G28   29.88F                  
GRAND PRAIRIE  FAIR      54  44  70 SE17G26   29.91F                  
ADDISON        FAIR      51  44  75 SE15G24   29.91S                  
MESQUITE       FAIR      51  44  76 SE16G23   29.93S                  
LANCASTER      FAIR      50  44  78 SE12      29.93S                  
$$

TXZ091>094-102>105-117-120-121-131>134-220500-
NORTH CENTRAL TEXAS
  
CITY           SKY/WX    TMP DP  RH WIND       PRES   REMARKS
SHRMAN/DENISON FAIR      49  42  77 SE21G32   29.88S                  
GAINESVILLE    FAIR      50  43  76 SW16G22   29.87S                  
BOWIE          FAIR      53  44  72 SE15G28   29.81F                  
BRIDGEPORT     FAIR      55  45  69 S16G22    29.86R                  
DECATUR        FAIR      53  45  72 SE20G32   29.83F                  
DENTON         FAIR      53  44  71 S20G29    29.86F                  
MCKINNEY       FAIR      50  44  80 S15G25    29.91S                  
BONHAM         FAIR      46  41  81 SE17G24   29.91F WCI  39          
GREENVILLE     FAIR      52  45  76 SE15      29.94F                  
ROCKWALL       FAIR      55  47  77 S13G23    29.93S                  
TERRELL        FAIR      52  44  74 S14G24    29.95S                  
WAXAHACHIE     FAIR      52  46  80 SE14      29.93R                  
CLEBURNE       FAIR      54  46  76 S23G36    29.90F                  
GRANBURY       FAIR      56  47  71 SE17G24   29.87F                  
$$

TXZ083>090-098>101-113>116-127>130-139>142-154-155-220500-
WESTERN NORTH TEXAS
  
CITY           SKY/WX    TMP DP  RH WIND       PRES   REMARKS
WICHITA FALLS  FAIR      53  43  68 S16       29.75F                  
WF-KICKAPOO    FAIR      54  43  66 S17       29.78S                  
VERNON         FAIR      53  39  59 S15       29.71F                  
ABILENE        FAIR      55  44  66 S23G37    29.76F                  
ABILENE-DYESS  FAIR      56  40  55 S29G37    29.75F                  
GRAHAM         FAIR      55  45  68 SE13G18   29.80R                  
BRECKENRIDGE   FAIR      58  42  54 S25G36    29.79S                  
CISCO          FAIR      55  43  62 S23G31    29.81F                  
EASTLAND       FAIR      54  42  63 S18G29    29.82F                  
RANGER         FAIR      53  45  72 S16G25    29.83S                  
MINERAL WELLS  FAIR      54  44  69 S16G25    29.84R                  
STEPHENVILLE   FAIR      54  46  73 S17G26    29.88S                  
COMANCHE       FAIR      54  46  74 S15       29.87R                  
BROWNWOOD      FAIR      55  45  67 S14       29.86F                  
COLEMAN        FAIR      54  44  68 S14       29.85S                  
BRADY          FAIR      54  45  71 S14G21    29.87F                  
$$

TXZ143>147-156>162-174-175-220500-
CENTRAL TEXAS
  
CITY           SKY/WX    TMP DP  RH WIND       PRES   REMARKS
WACO           MOCLDY    56  47  71 S21G29    29.93F                  
WACO-TSTC      CLEAR     55  48  76 S16G26    29.94F                  
WACO-MCGREGOR  CLOUDY    55  49  80 S21G26    29.93F                  
HILLSBORO      FAIR      54  49  83 SE21G28   29.91R                  
CORSICANA      FAIR      52  45  77 S20       29.96F                  
MEXIA          MOCLDY    54  45  73 SE15G24   29.96F                  
HEARNE         CLOUDY    55  51  87 SE9       30.02S                  
CAMERON        MOCLDY    56  49  76 S12       29.98F                  
TEMPLE         CLOUDY    56  50  80 SE28G33   29.94F                  
KILLEEN        CLOUDY    55  49  80 SE25      29.90F                  
KILLEEN-SKYLRK CLOUDY   N/A N/A N/A S16G26    29.93F                  
FORT HOOD      CLOUDY    56  49  80 S18G26    29.88F                  
GATESVILLE     MOCLDY    55  48  76 SE16G23   29.92F                  
HAMILTON       FAIR      53  47  81 S23       29.89F                  
LAMPASAS       CLOUDY    55  49  79 S13       29.90F                  
$$

TXZ095>097-106>112-122>126-135>138-148>153-164>167-220500-
EAST TEXAS
  
CITY           SKY/WX    TMP DP  RH WIND       PRES   REMARKS
PARIS          MOCLDY    45  39  79 SE18      29.96F WCI  37          
SULPHUR SPRNGS FAIR      49  43  79 SE9G16    29.99S                  
MOUNT PLEASANT MOCLDY    50  41  71 SE15G21   30.02F                  
GILMER         MOCLDY    50  43  77 SE9G20    30.01F                  
MINEOLA          N/A    N/A N/A N/A MISG        N/A                   
TYLER          FAIR      51  45  79 S22G30    29.98F                  
LONGVIEW         N/A     52  45  77 S18G26    30.02F                  
MARSHALL       CLOUDY    50  42  75 S9G16     30.07F                  
ATHENS         CLOUDY    52  45  76 SE12G22   29.97F                  
PALESTINE      FAIR      52  48  87 SE14G20   30.02S                  
JACKSONVILLE   MOCLDY    50  46  87 S15       30.04F                  
HENDERSON      CLOUDY    51  45  78 MISG      30.05F                  
CENTER         CLOUDY    51  46  84 SE10G18   30.10                   
NACOGDOCHES    CLOUDY    51  47  86 SE14G21   30.07F                  
LUFKIN         CLOUDY    50  47  89 SE10      30.08F                  
$$

SUPPLEMENTAL OBSERVATIONS (NWS FORT WORTH AREA)
  
CITY           SKY/WX    TMP DP  RH WIND       PRES   REMARKS
DENISON DAM      N/A     50  41  71 SE13        N/A                   
CADDO GRASSLND   N/A     46  39  76 S9G17       N/A                   
LBJ GRASSLAND    N/A     54  45  71 S14G24      N/A                   
GRANBURY         N/A     55  46  71 SE16G25     N/A                   
MCGREGOR         N/A     55  48  76 S23G30      N/A                   
TEMPLE           N/A     55  48  76 SE12        N/A                   
ATHENS           N/A     52  46  82 SE17        N/A                   
PALESTINE        N/A     52  46  82 SE12        N/A                   
$$

SUPPLEMENTAL OBSERVATIONS (NWS NORMAN AREA)
  
CITY           SKY/WX    TMP DP  RH WIND       PRES   REMARKS
MILLERS CREEK    N/A     55  41  58 S23         N/A                   
$$

SUPPLEMENTAL OBSERVATIONS (NWS SAN ANGELO AREA)
  
CITY           SKY/WX    TMP DP  RH WIND       PRES   REMARKS
HAMBY            N/A     55  43  62 CALM        N/A                   
IVIE RESERVOIR   N/A     55  45  67 SE15        N/A                   
COLORADO BEND    N/A     55  46  71 S16G29      N/A                   
$$

SUPPLEMENTAL OBSERVATIONS (NWS SHREVEPORT AREA)
  
CITY           SKY/WX    TMP DP  RH WIND       PRES   REMARKS
TEXARKANA        N/A     48  34  57 SE7         N/A                   
LINDEN           N/A     48  37  66 SE3         N/A                   
LUFKIN           N/A     52  46  82 MISG        N/A                   
N SABINE NF      N/A     52  46  82 MISG        N/A                   
$$

SUPPLEMENTAL OBSERVATIONS ARE A COLLECTION OF AUTOMATED INSTRUMENTS
THAT ARE MAINTAINED BY A VARIETY OF FEDERAL AND STATE AGENCIES. 
CERTAIN ELEMENTS...SUCH AS HUMIDITY VALUES AND SUSTAINED WIND 
SPEEDS...MAY BE APPROXIMATED.